Regional Weather Roundup
Issued by NWS

Home | Current Version | Previous Version | Text Only | Print | Product List | Glossary Off
Versions: 1 2 3 4 5 6 7 8 9 10 11 12 13 14 15 16 17 18 19 20 21 22 23 24 25 26 27 28 29 30 31 32 33 34 35 36 37 38 39 40 41 42 43 44 45 46 47 48 49 50

000
ASUS43 KIND 031509
RWRIN

WEATHER ROUNDUP FOR INDIANA
NATIONAL WEATHER SERVICE INDIANAPOLIS IN
1100 AM EDT FRI JUL 03 2015

NOTE: "FAIR" INDICATES FEW OR NO CLOUDS BELOW 12,000 FEET WITH NO
SIGNIFICANT WEATHER AND/OR OBSTRUCTIONS TO VISIBILITY.

* - STATION DOES NOT REPORT WEATHER SUCH AS PRECIPITATION OR FOG.

+ - STATION NOT QUALITY CONTROLLED BY THE NATIONAL WEATHER SERVICE.
    USE DATA WITH CAUTION...ESPECIALLY DEWPOINT AND RELATIVE
    HUMIDITY OBSERVATIONS.

INZ001>003-010>013-019-020-031600-
NORTHWEST INDIANA

CITY           SKY/WX    TMP DP  RH WIND       PRES   REMARKS
KNOX *+        PTSUNNY   70  54  56 NE6       29.96S
LA PORTE +     PTSUNNY   69  58  66 E5        29.98F
MICHIGAN CITY+ PTSUNNY   68  54  60 E3        29.98S
MONTICELLO +   PTSUNNY   66  57  72 NE6       29.94F
RENSSELAER +   PTSUNNY   68  59  73 NE7       29.96S
VALPARAISO     PTSUNNY   70  56  61 NE8       29.98S

$$

LMZ046-743>745-031600-
SOUTHERN LAKE MICHIGAN

STATION/POSITION TIME  TEMP    WIND        PRES    WAVE
                       AIR SEA DIR/SP/G            HT
                 (UTC) (F)     (DEG/KT/KT) (MB)    (FT)
BURNS HARBOR     1500   68      60/  6/  8 1015.6S
MICHIGAN CITY    1500   68     110/  6/  9   N/A
5NW MICH CITY    1500   63 64   10/  6/  8   N/A     1

$$

INZ004-005-014>016-021>024-031600-
NORTH CENTRAL INDIANA

CITY           SKY/WX    TMP DP  RH WIND       PRES   REMARKS
ELKHART        SUNNY     68  55  64 E7        29.98F
GOSHEN         PTSUNNY   70  55  59 SE9       29.97F
LOGANSPORT +   PTSUNNY   64  54  68 NE3       29.96S
PERU/GRISSOM   PTSUNNY   67  58  72 E10       29.94S
ROCHESTER +    PTSUNNY   70  59  68 E6        29.96F
SOUTH BEND     PTSUNNY   70  55  59 E5        29.98F
WARSAW +         N/A     68  55  64 E9        29.97S

$$

INZ006>009-017-018-025>027-031600-
NORTHEAST INDIANA

CITY           SKY/WX    TMP DP  RH WIND       PRES   REMARKS
ANGOLA *+        N/A     68  59  73 E7        29.98F
AUBURN +       SUNNY     70  52  52 E5        29.98F
FORT WAYNE     PTSUNNY   69  58  67 E10       29.96F
HUNTINGTON +   PTSUNNY   66  58  75 NE5       29.95F

$$

INZ028-029-035-036-043>045-051>053-031600-
WEST CENTRAL INDIANA

CITY           SKY/WX    TMP DP  RH WIND       PRES   REMARKS
CRAWFORDSVL +  PTSUNNY   67  56  68 NE7       29.92F
GREENCASTLE +  PTSUNNY   70  59  68 NE6       29.91S
LAFAYETTE      PTSUNNY   69  59  70 NE9       29.93F
TERRE HAUTE    CLOUDY    73  65  75 NE6       29.89F

$$

INZ030>032-037>040-046>048-054>057-064-065-031600-
CENTRAL INDIANA

CITY           SKY/WX    TMP DP  RH WIND       PRES   REMARKS
ANDERSON       MOSUNNY   66  54  63 NE7       29.95S
CP ATTERBURY + CLOUDY    68  61  77 NE7       29.90S
COLUMBUS       CLOUDY    68  63  83 NE7       29.90S
FISHERS *+     CLOUDY    64  61  88 CALM      29.92F
FRANKFORT +    PTSUNNY   67  60  79 N7        29.95F
GREENWOOD *+   CLOUDY    68  61  77 E7        29.92S
INDIANAPOLIS   PTSUNNY   67  59  75 N12       29.89F
-EAGLE CREEK   CLOUDY    65  59  81 NE8       29.91F
KOKOMO *+      PTSUNNY   66  57  72 E9        29.94F
MARION +       CLOUDY    66  57  73 E9        29.95S
MT COMFORT *+  PTSUNNY   68  61  77 NE8       29.92S
SHELBYVILLE    LGT RAIN  69  62  78 NE6       29.90S
ZIONSVILLE +   CLOUDY    66  57  71 NE7       29.94S

$$

INZ033-034-041-042-049-050-058-059-031600-
EAST CENTRAL INDIANA

CITY           SKY/WX    TMP DP  RH WIND       PRES   REMARKS
MUNCIE         PTSUNNY   67  58  72 E9        29.94F

$$

INZ060-061-067>069-081>083-085>088-031600-
SOUTHWEST INDIANA

CITY           SKY/WX    TMP DP  RH WIND       PRES   REMARKS
EVANSVILLE     CLOUDY    74  69  85 CALM      29.87R HAZE
HUNTINGBURG *+ CLOUDY    73  70  88 S3        29.87R
WASHINGTON +   CLOUDY    72  67  83 E6        29.87S

$$

INZ062-063-066-070>080-084-089>092-031600-
SOUTH CENTRAL AND SOUTHEAST INDIANA

CITY           SKY/WX    TMP DP  RH WIND       PRES   REMARKS
BLOOMINGTON    CLOUDY    70  64  81 E6        29.89S
MADISON *+     CLOUDY    70  64  83 E5        29.90S
NORTH VERNON + CLOUDY    72  72 100 E3        29.90S
SEYMOUR +      CLOUDY    72  66  83 E6        29.88S

$$



USA.gov is the U.S. government's official web portal to all federal, state and local government web resources and services.